Temp
72 73 72 72 71 72 75 79 80 79 77 76 75 76 76 76 73 71 71 71 70 70 70 70 71 70 70 70 69 69 69 70 70
71 72 72 72 73 75 72 74 78 79 79 78 77 78 75 75 73 73 72 72 73 71 71 73 72 71 70 70 69 69 68 68 70
68 67 70 70 75 71 71 72 76 77 81 79 79 77 76 75 73 75 73 74 73 71 71 71 72 71 70 70 70 70 70 70 71
65 67 68 68 68 70 72 74 71 70 68 67 66 66 74 73 72 74 73 72 72 72 72 72 71 70 70 71 71 72 71 71 71
65 66 68 67 66 69 69 71 68 69 67 66 62 65 68 72 72 73 72 71 71 72 71 71 71 70 69 68 68 70 70 70 70
63 65 65 65 63 66 67 69 67 65 66 66 63 64 67 70 69 70 69 69 70 71 71 70 70 70 69 68 68 67 68 68 68
62 62 65 67 61 64 67 67 66 66 66 70 67 64 67 67 68 69 71 70 71 71 69 69 68 67 66 66 66 66 67 67 67
62 63 64 66 63 62 66 66 67 68 66 66 67 67 67 67 68 70 70 70 69 68 67 69 68 67 66 66 67 71 67 66 66
63 64 65 65 65 66 67 67 67 68 67 68 68 66 66 68 68 68 68 68 70 70 69 67 66 66 66 66 69 69 68 68 65
65 66 68 66 67 68 67 69 71 68 67 68 66 66 65 65 66 67 68 70 69 67 65 65 65 65 64 63 63 66 66 68 65
65 67 67 66 66 66 65 65 64 64 64 63 62 62 62 62 62 62 63 63 62 63 63 63 62 62 62 62 64 64 64 66 64
64 64 61 61 62 62 62 61 61 60 59 59 59 58 59 60 60 60 60 60 60 61 61 60 60 61 61 61 62 63 62 62 63
62 62 61 60 61 61 60 58 59 57 56 56 55 55 56 57 57 57 57 57 57 58 58 58 60 60 61 61 61 62 61 61 61
62 61 59 59 58 56 56 57 57 54 53 52 53 54 54 54 53 54 55 54 55 55 55 55 55 57 59 59 60 61 59 59 60
59 58 58 57 55 53 54 55 54 51 50 51 51 51 51 51 51 54 55 52 52 52 50 51 52 53 54 58 58 59 59 58 58
56 55 55 55 53 52 51 51 51 48 49 50 50 50 49 49 50 51 51 49 49 49 49 49 50 51 52 53 58 58 59 58 58
55 54 52 52 50 48 48 49 50 50 50 50 49 48 47 48 47 50 49 51 50 47 47 50 55 50 50 53 55 58 60 61 60
50 50 50 49 48 48 48 48 49 51 50 49 47 47 47 46 48 47 49 50 50 52 53 53 53 54 55 52 52 55 55 54 57
49 48 48 48 48 48 48 49 49 50 50 49 46 46 46 45 46 47 49 49 50 52 51 50 49 48 49 53 52 50 48 46 45
51 48 48 48 48 48 48 48 48 49 49 48 46 44 45 45 46 46 48 48 47 45 49 50 48 47 46 48 48 45 43 43 43
MSLP
1008.19 1008.48 1008.46 1008.74 1009.42 1009.62 1009.03 1009.03 1009.56 1010.05 1010.28 1010.51 1011.40 1011.74 1012.13 1013.02 1013.12 1013.02 1013.27 1013.47 1013.69 1013.87 1013.84 1013.61 1013.78 1014.16 1014.19 1014.26 1014.10 1014.39 1014.59 1014.74 1014.81
1008.10 1008.04 1007.93 1008.11 1008.16 1008.98 1010.18 1010.70 1010.26 1009.63 1009.68 1010.11 1010.88 1011.03 1011.45 1011.90 1012.46 1013.16 1013.07 1013.14 1013.17 1013.25 1013.46 1013.48 1013.40 1013.72 1014.05 1014.25 1014.29 1014.41 1014.51 1014.52 1014.52
1008.59 1008.87 1008.59 1008.95 1009.10 1010.06 1010.89 1011.10 1011.24 1011.05 1010.58 1010.83 1011.41 1011.89 1011.53 1011.19 1012.08 1012.12 1012.59 1012.73 1012.81 1013.05 1013.22 1013.38 1013.26 1013.37 1013.90 1014.19 1014.18 1014.23 1014.33 1014.26 1014.18
1009.36 1009.34 1009.10 1009.27 1010.05 1009.90 1011.18 1010.99 1011.58 1011.61 1012.32 1012.20 1012.89 1015.76 1012.46 1011.42 1011.81 1012.29 1012.72 1012.80 1012.71 1012.86 1012.95 1013.28 1013.21 1013.52 1013.79 1013.91 1014.23 1013.92 1013.92 1014.00 1013.98
1009.34 1009.42 1009.45 1009.87 1010.27 1010.70 1011.70 1011.94 1011.30 1012.13 1012.28 1012.40 1014.66 1010.78 1011.53 1012.37 1012.72 1011.68 1011.86 1012.89 1012.91 1012.83 1012.88 1013.10 1013.34 1013.47 1013.70 1013.95 1013.90 1014.04 1014.05 1013.90 1013.78
1010.29 1010.32 1010.03 1010.08 1010.23 1010.49 1011.49 1011.85 1010.95 1012.63 1011.48 1011.30 1013.32 1015.32 1012.89 1011.42 1012.51 1011.86 1012.12 1012.94 1012.69 1012.73 1012.85 1012.87 1013.10 1013.36 1013.58 1013.92 1014.00 1013.94 1014.07 1014.07 1013.78
1011.21 1010.92 1010.65 1010.51 1010.69 1010.53 1010.05 1010.10 1009.56 1012.06 1011.45 1010.45 1013.16 1014.89 1014.71 1013.79 1012.59 1011.92 1012.02 1012.10 1012.07 1012.37 1012.83 1012.73 1013.03 1013.40 1013.32 1013.65 1013.96 1013.94 1013.71 1013.81 1013.72
1011.41 1011.28 1010.99 1010.60 1010.40 1011.38 1010.19 1008.70 1009.90 1011.60 1012.35 1013.46 1014.45 1015.45 1015.24 1013.43 1012.49 1012.13 1011.64 1011.62 1012.05 1012.16 1012.57 1012.63 1012.92 1013.06 1012.99 1012.88 1013.55 1013.38 1013.16 1013.22 1013.20
1011.87 1011.43 1011.30 1011.21 1011.05 1011.18 1011.00 1011.41 1011.90 1012.05 1012.60 1013.31 1014.27 1014.55 1013.82 1012.59 1012.04 1012.49 1011.62 1011.76 1012.03 1012.15 1012.53 1012.72 1012.78 1013.15 1012.71 1012.73 1013.10 1013.13 1012.59 1012.69 1012.75
1011.30 1011.39 1011.71 1011.60 1011.86 1011.81 1012.03 1012.42 1012.85 1013.31 1013.39 1013.35 1013.61 1013.67 1013.54 1013.27 1013.18 1012.83 1012.59 1012.58 1012.72 1013.18 1013.18 1013.06 1012.91 1013.26 1012.34 1012.63 1012.55 1013.17 1012.32 1011.97 1012.01
1011.04 1011.63 1012.06 1012.28 1012.31 1012.40 1012.74 1013.41 1014.09 1014.72 1014.90 1014.78 1014.70 1014.74 1014.70 1014.39 1014.33 1014.24 1014.14 1013.95 1013.82 1013.78 1013.48 1013.34 1013.08 1012.87 1012.26 1012.43 1012.40 1012.73 1011.89 1011.37 1011.33
1011.31 1011.99 1012.83 1013.43 1013.52 1013.54 1013.97 1014.27 1014.93 1015.31 1015.74 1015.97 1016.24 1016.54 1016.32 1016.02 1015.78 1015.67 1015.14 1014.67 1014.23 1014.16 1013.59 1013.03 1012.73 1012.60 1012.23 1012.45 1012.40 1012.06 1011.24 1010.92 1010.82
1011.89 1012.58 1013.14 1013.51 1013.93 1014.41 1014.92 1015.59 1015.81 1016.05 1016.49 1016.78 1017.03 1017.05 1016.74 1016.51 1016.15 1015.52 1015.21 1014.81 1014.17 1013.58 1013.41 1013.21 1012.85 1012.21 1012.43 1012.43 1012.14 1011.16 1010.46 1010.32 1010.42
1012.86 1013.32 1013.66 1014.12 1014.52 1014.69 1015.01 1015.19 1015.64 1016.32 1016.74 1017.07 1017.07 1017.05 1016.72 1015.90 1015.62 1014.96 1014.79 1014.53 1014.14 1014.13 1013.99 1013.50 1013.10 1012.78 1012.75 1012.23 1011.70 1010.37 1009.93 1009.78 1009.79
1013.82 1014.40 1014.95 1015.27 1015.28 1015.59 1015.66 1015.51 1015.59 1015.97 1016.07 1016.35 1016.13 1015.74 1015.39 1015.49 1015.20 1014.91 1014.90 1014.88 1014.53 1014.36 1013.78 1013.98 1013.69 1012.93 1012.31 1011.74 1010.52 1009.86 1009.62 1009.30 1009.15
1014.74 1015.13 1015.43 1015.82 1016.35 1016.81 1016.76 1016.65 1016.62 1016.92 1016.64 1016.02 1015.86 1015.63 1015.80 1015.53 1015.40 1015.58 1015.34 1014.96 1014.67 1014.23 1014.13 1014.05 1013.06 1012.50 1011.63 1010.79 1010.12 1009.77 1009.38 1008.96 1008.59
1015.62 1016.16 1016.46 1016.64 1016.73 1016.79 1016.90 1016.85 1016.81 1016.72 1016.80 1016.70 1016.62 1016.51 1016.30 1016.18 1016.09 1015.61 1015.25 1014.95 1014.52 1013.90 1013.32 1012.87 1012.13 1011.66 1011.25 1010.55 1010.08 1009.63 1009.18 1008.83 1008.43
1016.18 1016.38 1016.54 1016.70 1016.90 1017.02 1017.13 1017.02 1016.87 1016.68 1016.73 1016.58 1016.72 1016.54 1016.24 1015.98 1015.76 1015.47 1014.84 1014.20 1013.78 1013.41 1013.02 1012.56 1012.00 1011.52 1010.72 1010.20 1009.69 1009.24 1008.89 1008.58 1008.37
1016.51 1016.69 1016.82 1016.86 1016.85 1016.82 1016.82 1016.77 1016.67 1016.51 1016.33 1016.40 1016.53 1016.44 1016.29 1016.19 1016.04 1015.59 1015.12 1014.42 1013.56 1013.16 1012.54 1012.04 1011.53 1010.85 1010.53 1009.82 1009.10 1008.68 1008.33 1008.17 1008.09
1016.87 1017.11 1017.22 1017.25 1017.24 1017.17 1017.10 1016.97 1016.77 1016.53 1016.46 1016.47 1016.59 1016.76 1016.84 1016.65 1016.17 1015.81 1015.10 1014.25 1013.47 1012.47 1011.83 1011.35 1010.92 1010.38 1009.74 1009.29 1008.71 1008.29 1008.10 1007.85 1007.46
Wind_Speed
8 8 7 7 4 6 4 10 13 12 13 13 12 13 13 8 8 6 5 6 5 5 5 5 2 4 4 4 4 3 3 3 4
9 9 9 10 5 6 1 8 6 11 13 13 12 15 10 10 7 4 6 6 5 4 5 4 5 5 4 4 4 5 4 4 5
2 7 5 5 8 10 7 6 6 13 10 6 7 11 10 9 10 4 7 7 7 5 4 3 3 4 4 4 5 4 5 4 5
4 6 8 3 7 11 13 5 6 10 16 22 23 17 14 4 4 12 9 7 4 5 4 4 4 2 3 3 5 3 3 3 5
4 6 3 5 6 12 12 13 20 10 13 14 13 28 21 9 13 5 6 3 5 5 4 2 2 2 2 3 4 5 5 4 4
6 8 2 5 7 7 8 4 15 8 10 11 8 7 20 5 9 6 8 6 5 6 5 5 4 3 3 3 4 3 4 6 6
5 6 2 2 3 4 7 2 9 7 2 5 8 14 15 8 5 7 7 6 6 5 3 4 2 2 2 2 4 4 4 4 5
2 2 4 4 7 4 4 11 8 4 3 8 12 16 11 7 3 4 6 6 5 4 4 3 3 3 3 2 3 3 4 6 6
8 6 4 1 3 9 8 5 4 7 7 9 11 10 9 5 3 4 4 4 4 3 3 3 2 5 4 4 3 9 10 8 6
8 6 7 8 8 5 4 5 7 5 1 4 5 7 8 7 6 6 6 5 2 4 5 4 5 6 3 6 5 12 12 13 6
7 6 4 5 5 6 7 7 10 9 8 9 10 10 10 9 8 8 7 6 5 4 3 4 4 6 6 6 7 13 13 14 8
2 7 8 7 8 10 10 11 8 10 9 8 8 6 5 6 5 5 4 5 6 4 3 4 4 4 6 8 9 13 13 11 8
11 11 9 9 8 9 10 7 6 9 7 8 7 5 4 3 4 5 5 5 6 4 5 6 6 8 8 11 12 13 12 11 5
12 10 10 8 9 9 7 6 7 9 6 6 2 2 2 4 5 6 6 6 5 6 7 8 8 9 9 10 12 11 13 13 7
10 10 9 7 8 8 7 7 7 7 8 4 4 6 8 7 6 5 6 6 4 6 5 6 7 8 8 8 8 10 11 13 13
7 7 6 5 6 6 5 5 5 5 2 5 7 8 7 7 6 5 5 5 6 5 5 6 7 7 7 7 7 6 13 14 13
6 5 5 4 6 6 5 4 4 3 0 2 4 5 6 6 6 9 7 6 5 5 5 6 8 6 8 8 8 9 9 8 7
5 4 4 4 5 4 3 2 1 1 3 3 4 5 5 6 7 8 9 8 7 8 8 8 10 11 11 9 9 10 11 11 9
4 5 2 3 4 4 3 4 5 5 4 4 4 6 5 5 6 6 8 9 10 10 14 16 17 19 15 11 14 17 18 13 12
6 5 4 3 2 2 2 3 5 5 4 3 4 4 5 5 6 5 8 9 10 12 10 15 15 17 14 17 20 16 12 13 11
Wind_Direction
159 189 214 206 251 327 220 196 190 191 196 201 203 206 211 197 189 194 193 214 201 206 213 225 204 217 214 252 267 251 246 237 231
187 210 214 230 198 160 102 339 273 201 205 214 196 213 192 192 174 167 211 228 215 205 209 238 224 196 215 246 244 233 240 237 244
255 358 324 297 289 65 48 36 4 352 270 237 237 242 205 188 149 199 252 255 214 202 248 223 220 197 210 236 251 243 222 245 256
1 278 254 281 29 38 28 359 33 78 46 26 12 332 282 174 179 176 206 206 195 195 207 201 202 246 278 284 287 262 220 245 274
305 297 262 48 63 53 49 57 71 53 32 27 52 341 345 65 274 202 134 167 169 161 148 132 133 72 18 345 343 344 344 319 300
297 304 130 53 27 68 72 49 89 75 85 49 39 244 284 258 226 141 127 144 126 116 107 91 72 59 36 356 345 338 309 295 294
296 316 317 284 112 341 126 163 122 156 165 59 237 258 266 245 194 131 133 137 123 120 134 120 127 211 222 270 292 290 277 269 278
254 262 253 258 46 314 315 63 67 195 182 184 207 230 229 220 196 140 138 136 156 164 182 196 220 288 306 305 267 252 300 298 281
169 235 218 19 1 324 2 38 138 180 201 187 187 202 208 200 187 195 176 178 191 200 225 245 250 249 250 286 296 294 294 287 269
171 157 160 185 197 221 247 186 197 193 161 27 42 41 27 19 7 0 357 344 306 256 246 236 229 255 260 275 275 271 274 282 272
160 140 140 58 14 85 52 74 79 89 70 54 46 38 27 21 16 17 9 16 6 334 309 277 275 287 295 290 286 274 276 280 283
97 93 88 86 78 84 81 72 71 77 67 65 57 44 30 16 6 359 1 5 353 319 321 324 312 286 297 285 283 274 276 287 292
82 87 87 79 66 84 89 89 102 92 82 73 52 24 18 14 8 2 357 356 342 333 340 319 312 311 294 282 284 283 282 287 286
92 88 80 71 62 63 55 56 79 83 82 65 91 119 51 31 11 356 2 345 345 344 332 322 315 305 289 278 275 282 281 286 294
86 92 88 76 72 56 31 36 61 55 49 17 22 18 16 2 357 359 344 327 308 310 315 297 285 287 290 285 290 286 288 286 286
87 83 72 67 88 90 58 61 78 79 354 10 11 15 4 357 346 325 317 319 305 310 286 271 281 279 291 297 302 302 301 294 295
99 101 108 113 95 78 65 47 68 102 36 7 33 12 357 342 335 329 320 306 278 267 277 284 300 298 292 292 297 298 297 301 316
110 97 74 79 93 96 99 93 51 4 43 43 17 0 350 344 338 323 317 310 301 299 290 291 300 297 291 280 280 283 276 285 293
123 117 87 60 46 54 11 358 339 333 347 6 0 344 343 329 316 301 305 307 304 288 285 285 286 286 273 278 274 278 279 281 283
140 132 133 131 157 204 279 300 291 282 283 286 288 285 292 279 281 290 315 317 311 310 305 291 286 289 298 289 278 287 285 282 269